Location: De Har
(53.3413°N, 6.6858°E)
Time: 17:17:29
(UTC+00:00)

H-2A R/B - Pass Details

Date: 22 April 2026
Orbit: 477 x 549 km, 98.3° (Epoch: 8 May)

Event Time Altitude Azimuth Distance (km) Brightness Sun altitude
Exits shadow 02:06:44 13° 155° (SSE) 1,515 4.3 -16.6°
Maximum altitude 02:09:56 71° 72° (ENE) 520 2.3 -16.3°
Drops below altitude 10° 02:13:30 10° 348° (NNW) 1,675 5.3 -16.0°
Sets 02:15:34 0° 347° (NNW) 2,555 6.2 -15.8°
